Elsenborn, Belgium

9:53 PM CEST on April 27, 2017 (GMT +0200)
Elsenborn

Weather History for EBLB - February, 2013

Change the Weather History Date:

Monday, February 18, 2013

  Actual Average Record
Temperature  
Mean Temperature 32 °F -  
Max Temperature 42 °F 40 °F 46 °F (2008)
Min Temperature 23 °F 31 °F 17 °F (2008)
Degree Days  
Heating Degree Days 32    
Moisture  
Dew Point 24 °F    
Average Humidity 86    
Maximum Humidity 100    
Minimum Humidity 40    
Precipitation  
Precipitation 0.00 in - - ()
Sea Level Pressure  
Sea Level Pressure 30.09 in    
Wind  
Wind Speed 3 mph ()    
Max Wind Speed 7 mph    
Max Gust Speed -    
Visibility 5.0 miles    
Events Fog    
Averages and records for this station are not official NWS values.
T = Trace of Precipitation, MM = Missing Value Source: Averaged Metar Reports

Daily Weather History Graph

Daily Weather History Graph

Search for Another Location

Airport or City:

Trip Planner

Search our weather history database for the weather conditions in past years. The results will help you decide how hot, cold, wet, or windy it might be!

Date:

Astronomy

Feb. 18, 2013 Rise Set
Actual Time 7:41 AM CET 5:58 PM CET
Civil Twilight 7:07 AM CET 6:31 PM CET
Nautical Twilight 6:29 AM CET 7:09 PM CET
Astronomical Twilight 5:51 AM CET 7:47 PM CET
Moon 11:14 AM CET (2/18) 2:23 AM CET (2/18)
Length of Visible Light 11h 24m
Length of Day
10h 17m
First Quarter, 56% of the Moon is Illuminated
Feb 18
First Quarter
Feb 25
Full
Mar 4
Last Quarter
Mar 11
New
Mar 19
First Quarter

Hourly Weather History & Observations

Time (CET) Temp. Windchill Dew Point Humidity Pressure Visibility Wind Dir Wind Speed Gust Speed Precip Events Conditions
12:25 AM 24.8 °F 16.9 °F 23.0 °F 93% 30.12 in 3.1 mi ESE 6.9 mph - N/A   Partly Cloudy
1:00 AM 26 °F - 24 °F 89% 30.22 in 3 mi East 6.7 mph - -   Scattered Clouds
1:06 AM 24.8 °F 17.9 °F 23.0 °F 93% 30.09 in - East 5.8 mph - N/A   Partly Cloudy
2:25 AM 26.6 °F 22.6 °F 26.6 °F 100% 30.09 in - Variable 3.5 mph - N/A   Mostly Cloudy
3:02 AM 28.4 °F 23.3 °F 26.6 °F 93% 30.09 in 6.2 mi ESE 4.6 mph - N/A   Mostly Cloudy
3:17 AM 30.2 °F 24.3 °F 26.6 °F 86% 30.09 in 6.2 mi ESE 5.8 mph - N/A   Overcast
3:25 AM 30.2 °F 25.4 °F 26.6 °F 86% 30.09 in 6.2 mi ESE 4.6 mph - N/A   Overcast
3:29 AM 30.2 °F - 26.6 °F 86% 30.09 in 6.2 mi Variable 2.3 mph - N/A   Mostly Cloudy
4:00 AM 29 °F - 27 °F 91% 30.19 in 8 mi 4.5 mph - -   Partly Cloudy
4:17 AM 28.4 °F 24.6 °F 26.6 °F 93% 30.09 in 6.2 mi Variable 3.5 mph - N/A   Partly Cloudy
4:25 AM 28.4 °F 24.6 °F 26.6 °F 93% 30.09 in 6.2 mi Variable 3.5 mph - N/A   Partly Cloudy
4:41 AM 28.4 °F 24.6 °F 24.8 °F 86% 30.06 in 4.3 mi Variable 3.5 mph - N/A   Clear
5:25 AM 26.6 °F 20.0 °F 24.8 °F 93% 30.06 in 5.0 mi ESE 5.8 mph - N/A   Mostly Cloudy
6:25 AM 26.6 °F - 23.0 °F 86% 30.06 in 4.3 mi Variable 2.3 mph - N/A   Mostly Cloudy
6:42 AM 24.8 °F - 21.2 °F 86% 30.06 in - Variable 2.3 mph - N/A   Partly Cloudy
7:00 AM 24 °F - 22 °F 86% 30.20 in 2 mi 2.2 mph - -   Mist
7:06 AM 23.0 °F - 21.2 °F 93% 30.06 in 3.1 mi Variable 2.3 mph - N/A   Clear
8:16 AM 23.0 °F - 19.4 °F 86% 30.09 in 0.5 mi Calm Calm - N/A Fog Light Freezing Fog
8:25 AM 23.0 °F - 21.2 °F 93% 30.09 in - Calm Calm - N/A   Clear
8:37 AM 24.8 °F - 21.2 °F 86% 30.09 in 3.7 mi Variable 1.2 mph - N/A   Clear
8:38 AM 24.8 °F - 21.2 °F 86% 30.09 in 5.0 mi Variable 1.2 mph - N/A   Clear
8:44 AM 24.8 °F - 23.0 °F 93% 30.09 in 3.7 mi Variable 1.2 mph - N/A Fog Fog
9:21 AM 26.6 °F - 26.6 °F 100% 30.09 in 5.0 mi Variable 1.2 mph - N/A Fog Fog
9:25 AM 26.6 °F - 26.6 °F 100% 30.09 in 5.0 mi Variable 1.2 mph - N/A Fog Fog
10:00 AM 28 °F - 28 °F 100% 30.21 in 5 mi 2.2 mph - -   Clear
10:25 AM 32.0 °F - 26.6 °F 80% 30.09 in 6.2 mi Variable 1.2 mph - N/A   Partly Cloudy
1:00 PM 38 °F - 26 °F 51% 30.15 in 19 mi 2.2 mph - -   Partly Cloudy
2:25 PM 41.0 °F - 24.8 °F 53% 30.06 in 6.2 mi Variable 1.2 mph - N/A   Partly Cloudy
3:25 PM 39.2 °F - 26.6 °F 61% 30.06 in 6.2 mi Variable 1.2 mph - N/A   Partly Cloudy
4:00 PM 40 °F - 24 °F 40% 30.12 in 19 mi Calm Calm - -   Scattered Clouds
4:25 PM 41.0 °F - 23.0 °F 49% 30.06 in 6.2 mi Variable 2.3 mph - N/A   Scattered Clouds
5:25 PM 39.2 °F 37.0 °F 26.6 °F 61% 30.06 in 6.2 mi Variable 3.5 mph - N/A   Clear
6:25 PM 32.0 °F - 26.6 °F 80% 30.06 in 6.2 mi Calm Calm - N/A   Clear
7:00 PM 31 °F - 27 °F 79% 30.17 in 7 mi 2.2 mph - -   Partly Cloudy
7:16 PM 28.4 °F - 24.8 °F 86% 30.06 in 4.3 mi Variable 1.2 mph - N/A   Partly Cloudy
7:22 PM 28.4 °F - 24.8 °F 86% 30.06 in 5.0 mi Variable 1.2 mph - N/A   Partly Cloudy
7:45 PM 28.4 °F - 24.8 °F 86% 30.06 in 4.3 mi Calm Calm - N/A   Clear
8:25 PM 26.6 °F - 24.8 °F 93% 30.06 in 3.7 mi Calm Calm - N/A   Mostly Cloudy
8:36 PM 26.6 °F - 24.8 °F 93% 30.06 in 2.8 mi Calm Calm - N/A   Scattered Clouds
8:42 PM 26.6 °F - 23.0 °F 86% 30.06 in 0.8 mi Calm Calm - N/A   Scattered Clouds
8:48 PM 26.6 °F - 23.0 °F 86% 30.06 in 0.4 mi Calm Calm - N/A   Partly Cloudy
8:54 PM 26.6 °F - 24.8 °F 93% 30.06 in 0.8 mi Calm Calm - N/A   Scattered Clouds
9:00 PM 26.6 °F - 23.0 °F 86% 30.06 in 3.1 mi Calm Calm - N/A   Mostly Cloudy
9:06 PM 26.6 °F - 23.0 °F 86% 30.06 in - Variable 1.2 mph - N/A   Scattered Clouds
9:12 PM 26.6 °F - 24.8 °F 93% 30.06 in 3.1 mi Calm Calm - N/A   Scattered Clouds
9:25 PM 26.6 °F - 24.8 °F 93% 30.06 in 3.7 mi Variable 1.2 mph - N/A   Partly Cloudy
9:41 PM 26.6 °F - 23.0 °F 86% 30.06 in - Calm Calm - N/A   Partly Cloudy
9:47 PM 24.8 °F - 23.0 °F 93% 30.06 in 1.9 mi Calm Calm - N/A   Clear
9:57 PM 24.8 °F - 23.0 °F 93% 30.06 in - Variable 1.2 mph - N/A   Clear
10:00 PM 24 °F - 22 °F 91% 30.19 in 2 mi Calm Calm - -   Mist
10:25 PM 24.8 °F - 23.0 °F 93% 30.06 in 4.3 mi Calm Calm - N/A   Clear
11:25 PM 24.8 °F - 21.2 °F 86% 30.06 in 3.1 mi Calm Calm - N/A   Partly Cloudy
11:28 PM 24.8 °F - 21.2 °F 86% 30.06 in - Calm Calm - N/A   Clear
11:48 PM 23.0 °F - 21.2 °F 93% 30.06 in - Variable 1.2 mph - N/A   Clear